Вернуться в каталог

COSMOS 2011

АктивенСвязьLEO
NORAD 19905·PAYLOAD·🇷🇺 Russia

Запущен Mar 24, 1989 с Plesetsk Cosmodrome

Loading…

Ближайшие Пролёты (ближайшие 24 часа)

TLE

СвежийSource: Space-Track

Эпоха: Sep 14, 2026, 14:39 UTC

1 19905U 89025D   26257.61079225 -.00000008  00000-0  50872-4 0  9997
2 19905  74.0075 111.2296 0021006   4.0904  10.0224 12.52212476713111

Отслеживайте COSMOS 2011 в реальном времени с AllMySat

Download on the App Store